This demonstration page uses our WeatherBlox Daily Observations layout. Learn more.

Left ArrowRight Arrow

31.84235, -102.49876

Hourly Observations for April 12, 2023

Temp ( °F °C ) Dew Point ( °F °C ) Humidity (%) Winds ( mph kmh ) Pressure ( in mb ) Visibility ( mi km ) Precip ( " mm )
12:53 am 00:53 Clear 67 19.4 N/A N/A S 14 22 30.00 1016 10 16 0.00 0.00
1:53 am 01:53 Clear 65 18.3 N/A N/A S 13 20 29.98 1015 10 16 0.00 0.00
2:53 am 02:53 Clear 64 17.8 N/A N/A S 10 17 29.96 1015 10 16 0.00 0.00
3:53 am 03:53 Clear 62 16.7 N/A N/A SSE 12 19 29.94 1014 10 16 0.00 0.00
4:53 am 04:53 Clear 61 16.1 N/A N/A SSE 10 17 29.93 1014 10 16 0.00 0.00
5:53 am 05:53 Clear 60 15.6 N/A N/A S 13 20 29.94 1014 10 16 0.00 0.00
6:53 am 06:53 Clear 58 14.4 N/A N/A SSE 10 17 29.94 1014 10 16 0.00 0.00
7:53 am 07:53 Sunny 57 13.9 49 9.4 74 74 SSE 15 24 29.95 1014 10 16 0.00 0.00
8:53 am 08:53 Sunny 60 15.6 48 8.9 64 64 SSE 15 24 29.96 1015 10 16 0.00 0.00
9:53 am 09:53 Sunny 65 18.3 48 8.9 54 54 S 15 24 29.95 1014 10 16 0.00 0.00
10:53 am 10:53 Sunny 69 20.6 48 8.9 47 47 S 9 15 29.94 1014 10 16 0.00 0.00
11:53 am 11:53 Sunny 74 23.3 47 8.3 38 38 S 14 22 29.92 1013 10 16 0.00 0.00
12:53 pm 12:53 Sunny 79 26.1 42 5.6 27 27 SSE 17 28 29.89 1012 10 16 0.00 0.00
1:53 pm 13:53 Sunny 81 27.2 38 3.3 21 21 S 12 19 29.85 1011 10 16 0.00 0.00
2:53 pm 14:53 Sunny 84 28.9 38 3.3 19 19 SSE 12 19 29.82 1010 10 16 0.00 0.00
3:53 pm 15:53 Sunny 84 28.9 38 3.3 19 19 SSE 9 15 29.79 1009 10 16 0.00 0.00
4:53 pm 16:53 Sunny 84 28.9 37 2.8 19 19 SSE 14 22 29.76 1008 10 16 0.00 0.00
5:53 pm 17:53 Sunny 84 28.9 37 2.8 19 19 SSE 13 20 29.75 1007 10 16 0.00 0.00
6:53 pm 18:53 Sunny 83 28.3 37 2.8 19 19 SSE 17 28 29.75 1007 10 16 0.00 0.00
7:53 pm 19:53 Sunny 80 26.7 37 2.8 21 21 SSE 13 20 29.75 1007 10 16 0.00 0.00
8:53 pm 20:53 Clear 77 25 38 3.3 24 24 SSE 13 20 29.75 1007 10 16 0.00 0.00
9:53 pm 21:53 Clear 75 23.9 39 3.9 27 27 S 15 24 29.76 1008 10 16 0.00 0.00
10:53 pm 22:53 Clear 72 22.2 41 5 33 33 S 16 26 29.76 1008 10 16 0.00 0.00
11:53 pm 23:53 Clear 70 21.1 42 5.6 36 36 S 16 26 29.75 1008 10 16 0.00 0.00

Powered by Vaisala Xweather